Crane Lake, MN

8:55 PM CST on November 24, 2017 (GMT -0600)
Crane Lake

Weather History for KCDD - October, 2012

Change the Weather History Date:

Tuesday, October 9, 2012

  Actual Average Record
Temperature  
Mean Temperature 37 °F -  
Max Temperature 42 °F 53 °F 75 °F (2003)
Min Temperature 32 °F 35 °F 21 °F (2000)
Degree Days  
Heating Degree Days 28    
Moisture  
Dew Point 36 °F    
Average Humidity 97    
Maximum Humidity 100    
Minimum Humidity 93    
Precipitation  
Precipitation 0.03 in - - ()
Sea Level Pressure  
Sea Level Pressure 29.68 in    
Wind  
Wind Speed 4 mph (West)    
Max Wind Speed 12 mph    
Max Gust Speed 21 mph    
Visibility 9 miles    
Events Rain    
Averages and records for this station are not official NWS values.
T = Trace of Precipitation, MM = Missing Value Source: NWS Daily Summary

Daily Weather History Graph

Daily Weather History Graph

Search for Another Location

Airport or City:

Trip Planner

Search our weather history database for the weather conditions in past years. The results will help you decide how hot, cold, wet, or windy it might be!

Date:

Astronomy

Oct. 09, 2012 Rise Set
Actual Time 7:21 AM CDT 6:31 PM CDT
Civil Twilight 6:50 AM CDT 7:02 PM CDT
Nautical Twilight 6:14 AM CDT 7:38 PM CDT
Astronomical Twilight 5:37 AM CDT 8:15 PM CDT
Moon 12:31 AM CDT (10/9) 3:24 PM CDT (10/9)
Length of Visible Light 12h 12m
Length of Day
11h 10m
Last Quarter, 36% of the Moon is Illuminated
Oct 9
Last Quarter
Oct 15
New
Oct 21
First Quarter
Oct 29
Full
Nov 6
Last Quarter

Hourly Weather History & Observations

Time (CDT) Temp. Windchill Dew Point Humidity Pressure Visibility Wind Dir Wind Speed Gust Speed Precip Events Conditions
12:09 AM 37.4 °F - 37.4 °F 100% 29.58 in 4.0 mi Calm Calm - N/A Rain Light Rain
12:29 AM 37.4 °F - 37.4 °F 100% 29.58 in 10.0 mi Calm Calm - N/A   Overcast
12:49 AM 39.2 °F 37.0 °F 37.4 °F 93% 29.58 in 10.0 mi SW 3.5 mph - N/A   Overcast
1:09 AM 37.4 °F 34.9 °F 37.4 °F 100% 29.58 in 10.0 mi SW 3.5 mph - N/A   Overcast
1:49 AM 37.4 °F - 37.4 °F 100% 29.59 in 10.0 mi Calm Calm - N/A   Overcast
2:09 AM 37.4 °F - 37.4 °F 100% 29.59 in 7.0 mi Calm Calm - N/A   Light Drizzle
3:09 AM 37.4 °F 34.9 °F 37.4 °F 100% 29.58 in 7.0 mi SSW 3.5 mph - N/A   Overcast
3:29 AM 37.4 °F 34.9 °F 37.4 °F 100% 29.58 in 7.0 mi South 3.5 mph - N/A   Overcast
3:49 AM 37.4 °F 34.9 °F 37.4 °F 100% 29.57 in 7.0 mi South 3.5 mph - N/A   Overcast
4:09 AM 37.4 °F 34.9 °F 37.4 °F 100% 29.58 in 10.0 mi SSW 3.5 mph - N/A   Overcast
4:29 AM 39.2 °F - 37.4 °F 93% 29.58 in 10.0 mi Calm Calm - N/A   Overcast
4:49 AM 39.2 °F - 37.4 °F 93% 29.58 in 10.0 mi Calm Calm - N/A   Overcast
5:09 AM 39.2 °F 37.0 °F 37.4 °F 93% 29.58 in 10.0 mi SSW 3.5 mph - N/A   Overcast
5:29 AM 39.2 °F 37.0 °F 37.4 °F 93% 29.58 in 10.0 mi SSW 3.5 mph - N/A   Overcast
6:09 AM 39.2 °F 37.0 °F 37.4 °F 93% 29.59 in 10.0 mi SSW 3.5 mph - N/A   Overcast
6:29 AM 37.4 °F 34.9 °F 37.4 °F 100% 29.59 in 10.0 mi SSW 3.5 mph - N/A   Overcast
6:49 AM 37.4 °F 34.9 °F 37.4 °F 100% 29.59 in 10.0 mi SSW 3.5 mph - N/A   Overcast
7:09 AM 37.4 °F 32.1 °F 37.4 °F 100% 29.60 in 10.0 mi SW 6.9 mph - N/A   Overcast
7:29 AM 37.4 °F 32.1 °F 37.4 °F 100% 29.60 in 10.0 mi WSW 6.9 mph - N/A   Overcast
7:49 AM 37.4 °F 34.9 °F 37.4 °F 100% 29.60 in 10.0 mi SSW 3.5 mph - N/A   Overcast
8:09 AM 37.4 °F 33.8 °F 37.4 °F 100% 29.59 in 10.0 mi SSW 4.6 mph - N/A   Overcast
8:29 AM 37.4 °F 34.9 °F 35.6 °F 93% 29.60 in 10.0 mi SW 3.5 mph - N/A   Overcast
8:49 AM 37.4 °F 32.8 °F 37.4 °F 100% 29.60 in 10.0 mi WSW 5.8 mph - N/A   Overcast
9:09 AM 39.2 °F 35.0 °F 37.4 °F 93% 29.61 in 10.0 mi WSW 5.8 mph - N/A   Overcast
9:29 AM 39.2 °F 35.9 °F 37.4 °F 93% 29.61 in 10.0 mi SW 4.6 mph - N/A   Overcast
9:49 AM 39.2 °F 34.2 °F 37.4 °F 93% 29.61 in 10.0 mi SW 6.9 mph - N/A   Mostly Cloudy
10:09 AM 39.2 °F 33.6 °F 37.4 °F 93% 29.61 in 10.0 mi WSW 8.1 mph - N/A   Mostly Cloudy
10:29 AM 39.2 °F 32.5 °F 37.4 °F 93% 29.61 in 10.0 mi WSW 10.4 mph - N/A   Mostly Cloudy
10:49 AM 41.0 °F 34.7 °F 39.2 °F 93% 29.62 in 10.0 mi SW 10.4 mph - N/A   Overcast
11:09 AM 39.2 °F - 37.4 °F 93% 29.62 in 10.0 mi Calm Calm - N/A   Drizzle
11:29 AM 37.4 °F 32.1 °F 37.4 °F 100% 29.63 in 5.0 mi WSW 6.9 mph - N/A Rain Rain
11:49 AM 37.4 °F 32.8 °F 37.4 °F 100% 29.63 in 5.0 mi West 5.8 mph - N/A   Drizzle
12:09 PM 37.4 °F 31.4 °F 37.4 °F 100% 29.64 in 5.0 mi West 8.1 mph 16.1 mph N/A Rain Light Rain
12:29 PM 37.4 °F 32.8 °F 37.4 °F 100% 29.65 in 10.0 mi WNW 5.8 mph - 0.01 in   Drizzle
12:49 PM 39.2 °F 33.0 °F 37.4 °F 93% 29.65 in 7.0 mi NNW 9.2 mph - 0.01 in Rain Rain
1:09 PM 37.4 °F 31.4 °F 37.4 °F 100% 29.65 in 10.0 mi NW 8.1 mph 19.6 mph N/A Rain Light Rain
1:29 PM 39.2 °F 33.6 °F 37.4 °F 93% 29.65 in 7.0 mi NW 8.1 mph - N/A Rain Rain
1:49 PM 37.4 °F 32.8 °F 37.4 °F 100% 29.66 in 10.0 mi NW 5.8 mph - 0.01 in   Mostly Cloudy
2:09 PM 39.2 °F 34.2 °F 37.4 °F 93% 29.66 in 10.0 mi NW 6.9 mph - N/A   Mostly Cloudy
2:29 PM 37.4 °F 32.8 °F 37.4 °F 100% 29.67 in 7.0 mi NW 5.8 mph - N/A Rain Light Rain
2:50 PM 37.4 °F 34.9 °F 37.4 °F 100% 29.68 in 10.0 mi WNW 3.5 mph - 0.01 in   Overcast
3:09 PM 39.2 °F 34.2 °F 39.2 °F 100% 29.69 in 10.0 mi NW 6.9 mph - N/A   Overcast
3:29 PM 42.8 °F 37.0 °F 41.0 °F 93% 29.69 in 10.0 mi NW 10.4 mph 20.7 mph N/A   Overcast
3:49 PM 39.2 °F 33.6 °F 39.2 °F 100% 29.70 in 10.0 mi NW 8.1 mph 17.3 mph N/A Rain Light Rain
4:09 PM 35.6 °F 29.2 °F 35.6 °F 100% 29.71 in 10.0 mi NW 8.1 mph 18.4 mph N/A   Overcast
4:29 PM 35.6 °F 29.9 °F 35.6 °F 100% 29.72 in 10.0 mi WNW 6.9 mph - N/A   Light Drizzle
4:49 PM 39.2 °F 32.5 °F 37.4 °F 93% 29.73 in 10.0 mi NW 10.4 mph 17.3 mph N/A   Overcast
5:09 PM 37.4 °F 32.8 °F 37.4 °F 100% 29.74 in 3.0 mi NNW 5.8 mph 17.3 mph N/A   Overcast
5:29 PM 35.6 °F 29.9 °F 35.6 °F 100% 29.75 in 10.0 mi NW 6.9 mph - N/A   Overcast
5:49 PM 35.6 °F 28.0 °F 35.6 °F 100% 29.76 in 10.0 mi NW 10.4 mph - N/A   Overcast
6:09 PM 35.6 °F 29.2 °F 33.8 °F 93% 29.77 in 10.0 mi NW 8.1 mph - N/A   Overcast
6:29 PM 33.8 °F 27.0 °F 33.8 °F 100% 29.78 in 10.0 mi NW 8.1 mph - N/A   Overcast
6:49 PM 33.8 °F 27.0 °F 33.8 °F 100% 29.79 in 10.0 mi NNW 8.1 mph 18.4 mph N/A   Mostly Cloudy
7:09 PM 33.8 °F 27.7 °F 33.8 °F 100% 29.81 in 10.0 mi NW 6.9 mph 16.1 mph N/A   Overcast
7:29 PM 33.8 °F 25.8 °F 32.0 °F 93% 29.82 in 10.0 mi NW 10.4 mph 16.1 mph N/A   Overcast
7:49 PM 33.8 °F 25.8 °F 32.0 °F 93% 29.82 in 10.0 mi NNW 10.4 mph 16.1 mph N/A   Overcast
8:09 PM 32.0 °F 23.0 °F 32.0 °F 100% 29.83 in 10.0 mi NW 11.5 mph 17.3 mph N/A   Overcast
8:29 PM 32.0 °F 24.2 °F 32.0 °F 100% 29.84 in 10.0 mi NNW 9.2 mph 17.3 mph N/A   Overcast
8:49 PM 32.0 °F 24.8 °F 32.0 °F 100% 29.84 in 10.0 mi NNW 8.1 mph - N/A   Overcast
9:09 PM 32.0 °F 24.2 °F 32.0 °F 100% 29.85 in 10.0 mi NW 9.2 mph - N/A   Overcast
9:29 PM 32.0 °F 23.6 °F 32.0 °F 100% 29.85 in 10.0 mi NNW 10.4 mph 16.1 mph N/A   Overcast
9:49 PM 32.0 °F 25.6 °F 32.0 °F 100% 29.86 in 10.0 mi NW 6.9 mph - N/A   Overcast
10:09 PM 32.0 °F 28.7 °F 30.2 °F 93% 29.86 in 10.0 mi NW 3.5 mph - N/A   Overcast
10:29 PM 32.0 °F 24.8 °F 32.0 °F 100% 29.87 in 10.0 mi NW 8.1 mph - N/A   Overcast
10:49 PM 33.8 °F 30.8 °F 32.0 °F 93% 29.87 in 10.0 mi WNW 3.5 mph - N/A   Overcast
11:09 PM 33.8 °F 28.6 °F 32.0 °F 93% 29.86 in 10.0 mi NW 5.8 mph - N/A   Overcast
11:29 PM 32.0 °F - 30.2 °F 93% 29.87 in 10.0 mi Calm Calm - N/A   Mostly Cloudy
11:49 PM 32.0 °F - 30.2 °F 93% 29.87 in 10.0 mi Calm Calm - N/A   Mostly Cloudy